User: anonymous   Login
Location: Unspecified
(0.0000°N, 0.0000°E)
Time: 05:50:28
(UTC+00:00)
Language:

Transit 2A Rocket - Orbit

View from above orbital plane
View from above orbital plane
View from above satellite
View from above satellite

Ground track
Ground track

The orbit data is extracted from the following two-line orbital elements,

1 00047U 60007C   14352.50477598  .00000622  00000-0  16331-3 0  3849
2 00047 066.6669 122.3557 0233757 330.3721 028.4304 14.41393594845644
Epoch (UTC): 18 December 2014 12:06:52
Eccentricity: 0.0233757
inclination: 66.6669°
perigee height: 587 km
apogee height: 920 km
right ascension of ascending node: 122.3557°
argument of perigee: 330.3721°
revolutions per day: 14.41393594
mean anomaly at epoch: 28.4304°
orbit number at epoch: 84564

The dashed part of the orbit path shows where the satellite is in the earth's shadow,  

DLR